{"data":{"norad_id":68829,"epoch":"2026-05-25T04:14:24.928224Z","epoch_age_seconds":70044,"freshness":"FRESH","line1":"1 68829U 26090D   26145.17667741  .00040096  00000+0  19483-3 0  9993","line2":"2 68829  96.6462  63.6964 0016983 124.1205 236.1679 15.82125579  5031","mean_motion":15.82125579,"eccentricity":0.0016983,"inclination_deg":96.6462,"raan_deg":63.6964,"arg_perigee_deg":124.1205,"mean_anomaly_deg":236.1679,"bstar":0.00019483,"rev_number":503,"period_min":91.016795323553,"perigee_km":313.04768784743,"apogee_km":335.81362915629,"semimajor_km":6702.5676585019,"source":"CELESTRAK","updated_at":"2026-05-25T13:38:08.123905Z"}}